La Barousse Balès - 10/08/2008

Cyclosportive 105 Km


Pl Do. Nom - Surname Prénom - Name S-Cat /cat Club - Team TEMPS - Time Km/h BREVET
1 524 EMPORTES Patrice D 1   03:15:46 32,18 D'OR
2 580 COUTINNO Auguste E 1   03:15:46 32,18 D'OR
3 581 EYCHENNE Thierry E 2   03:15:56 32,15 D'OR
4 531 CARRERE Christophe D 2   03:15:59 32,14 D'OR
5 423 BOYER Nicolas D 3   03:16:40 32,03 D'OR
6 527 BALAT Monathan C 1   03:17:28 31,90 D'OR
7 523 EPIFANIE Vincent E 3   03:19:36 31,56 D'OR
8 285 PAGES Claude E 4   03:19:37 31,56 D'OR
9 299 MARMOUGET Claude D 4   03:19:37 31,56 D'OR
10 365 PANISSARD Nicolas C 2   03:19:37 31,56 D'OR
11 396 GIRALDI Théo E 5   03:19:38 31,56 D'OR
12 258 LABADENS Cédric C 3   03:19:38 31,56 D'OR
13 335 BONNET Jean-Luc D 5   03:19:39 31,55 D'OR
14 432 BISBAL Frédéric D 6   03:19:41 31,55 D'OR
15 518 BROSSARD Laurent D 7   03:19:43 31,54 D'OR
16 450 FAVAREL Julien C 4   03:20:59 31,34 D'OR
17 467 DIMNET Thomas C 5   03:20:59 31,34 D'OR
18 418 FOURNES David D 8   03:21:02 31,34 D'OR
19 511 LOZE David D 9   03:21:22 31,28 D'OR
20 493 AUMAGY Nicolas C 6   03:25:28 30,66 D'OR
21 530 LAGROSS Etienne D 10   03:25:30 30,66 D'OR
22 538 GREMEAUX Eric D 11   03:25:31 30,65 D'OR
23 407 IGAU Patrick E 6   03:25:32 30,65 D'OR
24 529 DOTTO Jérémie D 12   03:27:35 30,35 D'OR
25 356 ANTOINE Patrick E 7   03:28:15 30,25 D'OR
26 373 DARDENNE David D 13   03:28:16 30,25 D'OR
27 459 BONTEMPS Julien C 7   03:28:16 30,25 D'OR
28 277 CHARPENTIER Pierre C 8   03:28:16 30,25 D'OR
29 559 PAGES Eric E 8   03:28:16 30,25 D'OR
30 526 DELLA MASSA Philippe E 9   03:28:19 30,24 D'OR
31 404 SARTORE Sébastien D 14   03:28:19 30,24 D'OR
32 434 ENJALBERT Christophe D 15   03:28:20 30,24 D'OR
33 491 GEVREY Alain SE 1   03:28:21 30,24 D'OR
34 504 RIGAIL Daniel E 10   03:29:59 30,00 D'OR
35 433 GUIMBERTAUD Guillaume C 9   03:32:00 29,72 D'OR
36 508 ECHE Sébastien D 16   03:32:45 29,61 D'OR
37 547 THIEL Christian SE 2   03:32:55 29,59 D'OR
38 552 BERGES Frederic D 17   03:33:05 29,56 D'OR
39 437 FLOUS Gaëtan C 10   03:33:15 29,54 D'OR
40 492 CHANDEZ Thierry E 11   03:33:18 29,53 D'OR
41 575 GOUZE Fabrice E 12   03:33:22 29,53 D'OR
42 267 DAFFOS Emmanuel D 18   03:33:23 29,52 D'OR
43 564 CABOS Hugues D 19   03:34:16 29,40 D'OR
44 513 CONCHOU Romain C 11   03:34:27 29,38 D'OR
45 321 VENUTU Gérard SE 3   03:34:38 29,35 D'OR
46 554 VICTOR Christelle A 1   03:34:38 29,35 D'OR
47 300 PRADEL Maxime C 12   03:35:04 29,29 D'OR
48 505 SABATHE Paul C 13   03:35:04 29,29 D'OR
49 269 GUILHOT Paul SE 4   03:35:13 29,27 D'OR
50 386 GUILHOT Olivier C 14   03:35:13 29,27 D'OR
51 264 LOIRAT Bruno E 13   03:35:15 29,27 D'OR
52 353 ROURA Edouard SE 5   03:36:00 29,17 D'OR
53 412 OLLIER Jean-Christophe D 20   03:37:06 29,02 D'OR
54 447 LORMANT Patrick D 21   03:38:23 28,85 D'OR
55 503 DEMANGE Florent C 15   03:39:01 28,76 D'OR
56 283 LENOIR D'ESPINASSE Guillaune C 16   03:39:07 28,75 D'OR
57 569 CAMBLONG Noël SE 6   03:40:13 28,61 D'OR
58 477 DAURIAC Franck D 22   03:40:14 28,60 D'OR
59 562 BELLAN Didier E 14   03:40:14 28,60 D'OR
60 563 BUKOVEC Chritophe E 15   03:40:14 28,60 D'OR
61 589 LALOUM Patrick E 16   03:40:15 28,60 D'OR
62 327 RIGONI Michel G 1   03:40:15 28,60 D'OR
63 557 BEDEL Gerald G 2   03:40:28 28,57 D'OR
64 411 SORIANO Jean-Luc E 17   03:40:53 28,52 D'OR
65 371 MANDRILLON Christophe D 23   03:40:55 28,52 D'OR
66 382 BLANC Yvon SE 7   03:40:55 28,52 D'OR
67 543 DEGACHE Denis E 18   03:40:55 28,52 D'OR
68 578 BEAURAIN Honoré C 17   03:40:56 28,51 D'ARGENT
69 388 CAZENAVE Jean-Claude G 3   03:41:01 28,50 D'OR
70 468 ZALER Mannuel C 18   03:41:20 28,46 D'ARGENT
71 586 BILLIOT Laurent E 19   03:41:24 28,45 D'OR
72 576 LAFONT Christian SE 8   03:41:41 28,42 D'OR
73 582 CASTERAN Thierry E 20   03:42:34 28,31 D'OR
74 363 LABORDE Patrick D 24   03:42:48 28,28 D'OR
75 387 TRICHET Philippe E 21   03:42:48 28,28 D'OR
76 416 PRADET Lucien SE 9   03:42:53 28,27 D'OR
77 483 DELORME Paul G 4   03:43:31 28,19 D'OR
78 329 GRAS Lionel D 25   03:43:57 28,13 D'OR
79 465 FAGES Christian G 5   03:44:24 28,07 D'OR
80 318 DEMET Alexandre D 26   03:45:11 27,98 D'OR
81 478 MAGNIEN Gérald E 22   03:46:39 27,79 D'OR
82 568 DELMAS Vincent D 27   03:46:41 27,79 D'OR
83 567 DAUNAC Fabien D 28   03:46:41 27,79 D'OR
84 394 HAU Didier D 29   03:46:42 27,79 D'OR
85 346 PIBOT Gwendal D 30   03:46:53 27,77 D'OR
86 475 NIZARD Jean-Pascal D 31   03:47:18 27,71 D'OR
87 276 BOUHET Olivier C 19   03:47:39 27,67 D'ARGENT
88 471 GAUTHE Abel SE 10   03:47:40 27,67 D'OR
89 482 HEBRARD Michel G 6   03:47:41 27,67 D'OR
90 273 BLOT Jean-Baptiste C 20   03:47:41 27,67 D'ARGENT
91 544 LOSTE Patrick E 23   03:47:41 27,67 D'OR
92 485 LE BIHAN Jacques SE 11   03:47:41 27,67 D'OR
93 592 COLUS Jérôme D 32   03:49:27 27,46 D'OR
94 520 BERNADET Patrick E 24   03:49:40 27,43 D'OR
95 347 ACAP Rémy SE 12   03:50:17 27,36 D'OR
96 561 LARTIGUE Henri SE 13   03:50:19 27,35 D'OR
97 178 BAJEUX Jean SE 14 ERMONT EAUBONNE ST PRIX 03:50:19 27,35 D'OR
98 479 LAZAYRES Jean-Loup SE 15   03:51:19 27,23 D'OR
99 481 TOURNOU Stéphane C 21   03:51:36 27,20 D'ARGENT
100 573 COSTA Dominique D 33   03:51:38 27,20 D'ARGENT
101 439 BOY André SE 16   03:51:49 27,17 D'OR
102 291 ZELMAT Lionel C 22   03:52:01 27,15 D'ARGENT
103 311 BROUSSET Francis SE 17   03:52:02 27,15 D'OR
104 486 GASTON CARRERE Didier E 25   03:52:03 27,15 D'OR
105 438 PIQUEMAL Raymond G 7   03:52:05 27,15 D'OR
106 598 ARZUBIALDE Tomas E 26   03:52:09 27,14 D'OR
107 495 VEGA CAMPS Joseph-Manuel D 34   03:52:10 27,13 D'ARGENT
108 490 LAHOUSE Jean-Marie SE 18   03:52:11 27,13 D'OR
109 558 MARTY Jean François D 35   03:52:57 27,04 D'ARGENT
110 389 CHAUVET Bernard E 27   03:52:58 27,04 D'OR
111 303 LOHIER Stéphan D 36   03:53:38 26,96 D'ARGENT
112 441 ROUSSE Roger G 8   03:53:39 26,96 D'OR
113 528 ABADIE Christian E 28   03:53:39 26,96 D'OR
114 295 MONTANE Alain E 29   03:54:03 26,92 D'OR
115 270 RIVIERE Gérard SE 19   03:55:00 26,81 D'OR
116 383 RENARD Stéphane E 30   03:55:02 26,80 D'OR
117 369 PERE Christian D 37   03:55:20 26,77 D'ARGENT
118 502 LANGLOIS Pascal E 31   03:56:14 26,67 D'OR
119 449 SIERRA Aurélien C 23   03:56:15 26,67 D'ARGENT
120 350 DESPAUX Denis D 38   03:57:00 26,58 D'ARGENT
121 381 TOUZANNE Samuel D 39   03:57:45 26,50 D'ARGENT
122 297 RIBET Christophe E 32   03:58:36 26,40 D'OR
123 308 CUSIN Eric E 33   03:58:43 26,39 D'OR
124 553 LECOQ Laurent E 34   03:58:47 26,38 D'OR
125 533 JURQUET Jean-Marie E 35   03:59:23 26,32 D'OR
126 275 FESTER Glenn D 40   03:59:38 26,29 D'ARGENT
127 374 PEDUSSAUT Alex SE 20   03:59:42 26,28 D'OR
128 296 LANSALOT Christian SE 21   03:59:44 26,28 D'OR
129 546 RENARD Patrice E 36   03:59:44 26,28 D'OR
130 414 MAURETTE Marcel SE 22   03:59:45 26,28 D'OR
131 336 QUESNEL Christian SE 23   04:00:19 26,21 D'OR
132 541 BIELSA² Laurent E 37   04:00:21 26,21 D'ARGENT
133 266 DEJEAN Guy SE 24   04:00:21 26,21 D'OR
134 366 SIFFRE Jean-Marie D 41   04:00:25 26,20 D'ARGENT
135 385 BRUNA Roger E 38   04:01:45 26,06 D'ARGENT
136 517 FELIX G2RALD E 39   04:01:48 26,05 D'ARGENT
137 424 ISTIL Mathieu D 42   04:01:50 26,05 D'ARGENT
138 555 LAFITE Marc SE 25   04:03:12 25,90 D'OR
139 352 LACROIX Bernard SE 26   04:03:32 25,87 D'OR
140 415 SABATIER Frédéric D 43   04:03:46 25,84 D'ARGENT
141 436 MARC Patrick SE 27   04:03:48 25,84 D'OR
142 312 GARRIGUES René SE 28   04:03:49 25,84 D'OR
143 583 GUIRAUD Jean SE 29   04:03:49 25,84 D'OR
144 354 BERNAT Alexis D 44   04:03:51 25,84 D'ARGENT
145 595 FONTES MARC SE 30   04:03:52 25,83 D'OR
146 302 VILLENEUVE Hubert E 40   04:04:02 25,81 D'ARGENT
147 425 MARTY Cédric C 24   04:04:57 25,72 D'ARGENT
148 525 LEGRAS Bruno E 41   04:04:57 25,72 D'ARGENT
149 512 DANGLETERRE Cyril D 45   04:05:00 25,71 D'ARGENT
150 372 MORADO Alain E 42   04:05:05 25,70 D'ARGENT
151 579 PIERREFITTE Guy G 9   04:05:22 25,67 D'OR
152 319 HEULOT Julien C 25   04:05:23 25,67 D'ARGENT
153 293 MAGNIEN Florent C 26   04:05:23 25,67 D'ARGENT
154 306 SAMORA Georges E 43   04:05:24 25,67 D'ARGENT
155 305 BOTTAREL Didier E 44   04:05:37 25,65 D'ARGENT
156 427 PENDERY Andrew E 45   04:06:10 25,59 D'ARGENT
157 316 GUILHEM Daniel D 46   04:07:08 25,49 D'ARGENT
158 400 CAROZZANI Alain SE 31   04:07:09 25,49 D'OR
159 343 SECEILLE Didier SE 32   04:07:26 25,46 D'OR
160 274 JARNOT Christian D 47   04:07:26 25,46 D'ARGENT
161 577 PUNTO Jean-Jacques SE 33   04:07:27 25,46 D'OR
162 460 CLAVEL Joël SE 34   04:07:51 25,42 D'OR
163 457 TENDRON Gildas D 48   04:08:18 25,37 D'ARGENT
164 516 BOULLEMANT Fbarice SE 35   04:08:36 25,34 D'OR
165 515 MAS Frédéric E 46   04:08:36 25,34 D'ARGENT
166 287 MARTY Pierre-Yves D 49   04:08:39 25,34 D'ARGENT
167 509 MERINO Fabrice C 27   04:09:09 25,29 D'ARGENT
168 585 MARTIN José E 47   04:09:15 25,27 D'ARGENT
169 338 THAIS Laurent E 48   04:09:16 25,27 D'ARGENT
170 448 BARON Jean SE 36   04:09:17 25,27 D'OR
171 341 CAPDEVIELLE Christophe E 49   04:09:28 25,25 D'ARGENT
172 282 MONJANEL Emmanuel E 50   04:09:40 25,23 D'ARGENT
173 399 GROUSSET Marc G 10   04:09:45 25,22 D'OR
174 401 CASTERET Francis SE 37   04:09:55 25,21 D'OR
175 565 BOUE Sebastien D 50   04:09:58 25,20 D'ARGENT
176 469 DE LAN Gilbert SE 38   04:10:14 25,18 D'OR
177 390 ESTAQUE Alain E 51   04:10:16 25,17 D'ARGENT
178 470 BRARD Michel SE 39   04:10:30 25,15 D'OR
179 510 MIEYAN Franck E 52   04:10:34 25,14 D'ARGENT
180 325 BLANC Gilles E 53   04:10:54 25,11 D'ARGENT
181 474 VIZCAY Robert E 54   04:10:55 25,11 D'ARGENT
182 405 REY Pierre G 11   04:11:11 25,08 D'OR
183 514 BELLEGANTE Thierry E 55   04:12:17 24,97 D'ARGENT
184 542 CORRAL Bénédicto SE 40   04:12:30 24,95 D'OR
185 540 LAURONSE Dominique E 56   04:12:30 24,95 D'ARGENT
186 473 DAFFOS David E 57   04:12:57 24,90 D'ARGENT
187 519 PUJO Gilles D 51   04:12:58 24,90 D'ARGENT
188 566 POUTOU Serge E 58   04:12:59 24,90 D'ARGENT
189 301 FOURCADE Clément SE 41   04:13:45 24,83 D'OR
190 324 SAURIN Francis SE 42   04:13:46 24,83 D'OR
191 506 ZAMUNER Albert SE 43   04:15:35 24,65 D'OR
192 588 CASSOULONG Sébastien D 52   04:15:47 24,63 D'ARGENT
193 278 ESCOURROU Vincent SE 44   04:15:48 24,63 D'OR
194 290 CASTANET Didier SE 45   04:16:01 24,61 D'OR
195 357 BRAVO Michel E 59   04:16:02 24,61 D'ARGENT
196 413 NOUGUE Patrick SE 46   04:16:02 24,61 D'OR
197 463 FERRE LOUIS E 60   04:16:03 24,60 D'ARGENT
198 384 RIBAUT Christian G 12   04:16:04 24,60 D'OR
199 391 DARRIET Jean E 61   04:16:05 24,60 D'ARGENT
200 522 DUMONT Damien C 28   04:16:07 24,60 D'ARGENT
201 254 MAISSE Emmanuel E 62   04:16:10 24,59 D'ARGENT
202 408 BESNARD Guillaume D 53   04:16:12 24,59 D'ARGENT
203 261 ESTRADE Rémy D 54   04:16:12 24,59 D'ARGENT
204 255 TABOURET Jean-Marc E 63   04:16:15 24,58 D'ARGENT
205 263 RIVAYRAND Pierre E 64   04:16:53 24,52 D'ARGENT
206 587 FERRER Magali A 2   04:17:19 24,48 D'OR
207 419 PERSONNAZ Olivier D 55   04:17:32 24,46 D'ARGENT
208 600 LLOBREGAT Antony C 29   04:17:39 24,45 D'ARGENT
209 593 RUIZ Georges SE 47   04:17:39 24,45 D'OR
210 359 BORDES Bruno E 65   04:17:40 24,45 D'ARGENT
211 403 COUILLENS Michel G 13   04:17:40 24,45 D'OR
212 489 DULUC Bernard SE 48   04:17:40 24,45 D'OR
213 536 BAYLE Guy D 56   04:18:19 24,39 D'ARGENT
214 361 BOUGUES Jean-Luc E 66   04:18:25 24,38 D'ARGENT
215 292 VERGE Eric E 67   04:18:44 24,35 D'ARGENT
216 358 CANTON Michel SE 49   04:18:44 24,35 D'OR
217 480 CASTEX Noël G 14   04:18:48 24,34 D'OR
218 590 BONED Jean-Louis E 68   04:18:56 24,33 D'ARGENT
219 521 THOMAS Jacky E 69   04:19:01 24,32 D'ARGENT
220 551 PREPOGNOT Bernard G 15   04:19:16 24,30 D'OR
221 322 GUY Christophe D 57   04:19:35 24,27 D'ARGENT
222 461 LE PARC Raymond G 16   04:19:54 24,24 D'OR
223 284 CAVAILLE Alain Bernard E 70   04:19:54 24,24 D'ARGENT
224 453 PONZIO Fernand G 17   04:19:54 24,24 D'OR
225 370 MOIZO Michel G 18   04:19:54 24,24 D'OR
226 464 DUBREY Francis G 19   04:20:13 24,21 D'OR
227 395 RORATO Philippe D 58   04:20:16 24,20 D'ARGENT
228 355 GAUGER Virginie A 3   04:20:24 24,19 D'OR
229 337 CAPELLE Claude SE 50   04:20:35 24,18 D'OR
230 317 BARON Philippe C 30   04:20:40 24,17 D'ARGENT
231 320 HEULOT Michel SE 51   04:21:02 24,13 D'OR
232 334 FABARON Emile G 20   04:21:12 24,12 D'OR
233 309 LANSAC Serge SE 52   04:21:47 24,06 D'OR
234 591 NOIRAULT Alain SE 53   04:21:49 24,06 D'OR
235 476 FERNANDEZ Jean-Yves SE 54   04:21:49 24,06 D'OR
236 402 DE FREITAS Serge G 21   04:21:49 24,06 D'OR
237 362 ABELLAN Georges SE 55   04:21:50 24,06 D'OR
238 539 BORDERE Maurice G 22   04:21:51 24,06 D'OR
239 392 EZEQUEL David D 59   04:22:14 24,02 D'ARGENT
240 454 DELATTRE Bruno E 71   04:23:32 23,90 D'ARGENT
241 435 CATHMOIR Neil SE 56   04:24:15 23,84 D'OR
242 89 BOICHOT Dominique E 72 UC SAINT-JUSTINOISE 04:24:21 23,83 D'ARGENT
243 466 ROBERT France B 1   04:24:29 23,82 D'OR
244 345 VEILET Brigitte B 2   04:24:44 23,80 D'OR
245 223 GARY Geller E 73   04:25:58 23,69 D'ARGENT
246 271 ATHERFOLD Allan G 23   04:26:15 23,66 D'OR
247 268 SARTHOU Alain Bernard G 24   04:26:25 23,65 D'OR
248 537 HOURDEBAIGT Paule B 3   04:28:44 23,44 D'OR
249 289 PALLAS Gilbert SE 57   04:29:08 23,41 D'OR
250 487 BAZERQUE Richard D 60   04:29:19 23,39 D'ARGENT
251 314 MONTEIL Roselyne B 4   04:30:09 23,32 D'OR
252 330 GATIMEL Jean-Pierre G 25   04:30:37 23,28 D'OR
253 472 LAMBERT Lionnel SE 58   04:31:28 23,21 D'OR
254 507 ESTAQUE Bernard E 74   04:31:28 23,21 D'ARGENT
255 313 MONTEIL Serge E 75   04:31:32 23,20 D'ARGENT
256 426 LABBE Patrick SE 59   04:31:33 23,20 D'OR
257 307 DASSIEU Michel SE 60   04:31:42 23,19 D'OR
258 377 SALANSON Jérôme D 61   04:32:38 23,11 D'ARGENT
259 272 GIBBS Peter G 26   04:32:42 23,10 D'OR
260 455 HELIN Jacques G 27   04:32:57 23,08 D'OR
261 326 SABUCO Patrick SE 61   04:34:58 22,91 D'OR
262 315 SEGURA Jean SE 62   04:35:24 22,88 D'OR
263 360 GUY Jérôme D 62   04:35:31 22,87 DE BRONZE
264 380 BOUCHET Serge SE 63   04:35:52 22,84 D'OR
265 494 VIDAL Eric E 76   04:36:37 22,77 D'ARGENT
266 462 ABELIA François G 28   04:36:38 22,77 D'OR
267 409 PECHAMBERT Pierrick D 63   04:37:49 22,68 DE BRONZE
268 368 DELAS Michel G 29   04:38:04 22,66 D'OR
269 378 BIRMES-VAAST Marie B 5   04:38:58 22,58 D'OR
270 379 BIRMES Philippe E 77   04:38:58 22,58 D'ARGENT
271 428 KIESER Xavier D 64   04:39:00 22,58 DE BRONZE
272 340 KIESER Michel SE 64   04:39:00 22,58 D'OR
273 364 DUFAUR Francis SE 65   04:39:23 22,55 D'OR
274 500 VEILLET Virginie A 4   04:39:25 22,55 D'OR
275 594 BRETOU Alain E 78   04:39:33 22,54 D'ARGENT
276 417 LYAUTEY Hervé SE 66   04:40:19 22,47 D'OR
277 253 BLANC Serge E 79   04:40:21 22,47 D'ARGENT
278 421 LABORIE Georges G 30   04:40:21 22,47 D'OR
279 456 MONTORO Frank D 65   04:40:37 22,45 DE BRONZE
280 260 HARDOUIN Olivier E 80   04:40:54 22,43 D'ARGENT
281 331 RAMDANI Malika A 5   04:41:01 22,42 D'ARGENT
282 286 LAFAYE Christian SE 67   04:41:01 22,42 D'OR
283 560 LARTIGUE Marie Christine B 6   04:41:02 22,42 D'OR
284 375 RIGAUD Christophe D 66   04:41:04 22,41 DE BRONZE
285 452 BERNARD Daniel E 81   04:41:08 22,41 D'ARGENT
286 256 VOGRINCIC Christophe D 67   04:41:28 22,38 DE BRONZE
287 458 DEMONT Hugues D 68   04:41:40 22,37 DE BRONZE
288 440 THOMAS Guy SE 68   04:43:09 22,25 D'OR
289 397 BARBEAU Patrick E 82   04:43:24 22,23 D'ARGENT
290 288 DELMAS Jean-Claude G 31   04:43:49 22,20 D'OR
291 281 VIGNEAU Laurent D 69   04:43:55 22,19 DE BRONZE
292 279 PORTA Christian SE 69   04:44:36 22,14 D'OR
293 548 MACIAS Stephane E 83   04:45:14 22,09 DE BRONZE
294 584 DIANA Thierry E 84   04:45:24 22,07 DE BRONZE
295 398 WIDDOWSON Paul G 32   04:45:37 22,06 D'OR
296 410 ANTONA Jacques G 33   04:45:52 22,04 D'OR
297 294 FARENC Florian D 70   04:46:02 22,03 DE BRONZE
298 488 BAZERQUE Sylvie A 6   04:46:07 22,02 D'ARGENT
299 280 PORTA Muriel B 7   04:46:16 22,01 D'OR
300 351 DURAND Cedric D 71   04:47:21 21,92 DE BRONZE
301 304 ROUILLOU Jean-Michel E 85   04:48:03 21,87 DE BRONZE
302 499 STANHOPE Rachel B 8   04:49:46 21,74 D'OR
303 556 SANTAROSSA Roberto E 86   04:51:21 21,62 DE BRONZE
304 545 GURY Gilles SE 70   04:52:14 21,56 D'ARGENT
305 496 WHITE William E 87   04:52:32 21,54 DE BRONZE
306 342 GERMINAL Alain G 34   04:54:22 21,40 D'OR
307 550 MACIAS Saturnin G 35   04:56:00 21,28 D'ARGENT
308 532 MORA Jean-Claude G 36   04:56:00 21,28 D'ARGENT
309 497 BRUNDELL HEATH D 72   04:56:03 21,28 DE BRONZE
310 596 PECHBERTY Matthieu E 88   04:56:34 21,24 DE BRONZE
311 535 COLLEONI Christian SE 71   04:56:35 21,24 D'ARGENT
312 349 CAMPISTRO Léon G 37   04:58:44 21,09 D'ARGENT
313 549 MONS Celine A 7   04:58:46 21,09 D'ARGENT
314 572 LOUBENS Marc SE 72   05:00:09 20,99 D'ARGENT
315 251 CHANSOU Gérard SE 73   05:00:42 20,95 D'ARGENT
316 597 VINCENT Marc G 38   05:01:08 20,92 D'ARGENT
317 445 POUGET Christian SE 74   05:01:22 20,90 D'ARGENT
318 442 FERNANDEZ Marc E 89   05:01:31 20,89 DE BRONZE
319 446 PLIQUE Françoise B 9   05:01:32 20,89 D'ARGENT
320 422 SOULA Robert G 39   05:02:00 20,86 D'ARGENT
321 451 BERNARD Alexis SE 75   05:04:22 20,70 D'ARGENT
322 574 ZELMAT Jean-Marc E 90   05:05:51 20,60 DE BRONZE
323 348 GAILHARD Jean-Claude G 40   05:06:08 20,58 D'ARGENT
324 406 DEDONS Roland G 41   05:06:57 20,52 D'ARGENT
325 498 WHITE Jack E 91   05:08:54 20,39 DE BRONZE
326 599 EPEE Wery E 92   05:09:41 20,34 DE BRONZE
327 484 MORERE Jean-Claude SE 76   05:09:45 20,34 D'ARGENT
328 323 FLORES Thomas G 42   05:10:42 20,28 D'ARGENT
329 298 SARIE Alain SE 77   05:12:00 20,19 D'ARGENT
330 332 ESCARE Jean-Pierre G 43   05:14:50 20,01 D'ARGENT
331 501 MOREL Dominique E 93   05:22:22 19,54 DE BRONZE
332 443 NEVEU Sylvain SE 78   05:23:58 19,45 D'ARGENT
333 367 VERLYCK Philippe SE 79   05:31:46 18,99 DE BRONZE
334 420 SOLIS-RAMOS Jean-Michel SE 80   05:35:21 18,79 DE BRONZE